DW2217 Weather Reports


Display with metric or nautical units.
time (UTC)temp
F
wind
direction
speed
MPH
gust
MPH
rain 1hr
in
rain 24hr
in
rain mn
in
humidity
%
barometer
mb
20210303121528 8 0.0 0.0 0.00 0.00 0.00 84 1007.7
20210303120035 7 0.0 0.0 0.00 0.00 0.00 84 1007.9
20210303114552 6 0.0 0.0 0.00 0.00 0.00 82 1007.7
20210303113559 7 0.0 0.0 0.00 0.00 0.00 81 1007.8
20210303111543 8 0.0 0.0 0.00 0.00 0.00 82 1007.6
20210303110027 8 0.0 0.0 0.00 0.00 0.00 81 1007.6
20210303104536 8 0.0 0.0 0.00 0.00 0.00 81 1007.7
20210303103550 8 0.0 0.0 0.00 0.00 0.00 81 1007.8
20210303101533 8 0.0 0.0 0.00 0.00 0.00 79 1007.9
20210303100043 9 0.0 0.0 0.00 0.00 0.00 78 1007.8
20210303094528 9 0.0 0.0 0.00 0.00 0.00 81 1007.9
20210303093430 9 0.0 0.0 0.00 0.00 0.00 77 1007.8
20210303091539 9 0.0 0.0 0.00 0.00 0.00 78 1007.7
20210303090026 9 0.0 0.0 0.00 0.00 0.00 76 1007.7
20210303084529 10 0.0 0.0 0.00 0.00 0.00 75 1007.9
20210303083630 10 0.0 0.0 0.00 0.00 0.00 76 1007.9
20210303081541 9 0.0 0.0 0.00 0.00 0.00 74 1007.9
20210303080035 10 0.0 0.0 0.00 0.00 0.00 72 1007.8
20210303074543 10 0.0 0.0 0.00 0.00 0.00 68 1008.0
20210303073601 10 0.0 0.0 0.00 0.00 0.00 65 1008.3
20210303071526 10 0.0 0.0 0.00 0.00 0.00 66 1008.5
20210303070056 10 0.0 0.0 0.00 0.00 0.00 69 1008.8
20210303064540 11 0.0 0.0 0.00 0.00 0.00 63 1008.9
20210303063536 11 0.0 0.0 0.00 0.00 0.00 60 1009.1
20210303061602 12 0.0 0.0 0.00 0.00 0.00 58 1009.1
20210303060050 13 0.0 0.0 0.00 0.00 0.00 57 1009.4
20210303054530 15 0.0 0.0 0.00 0.00 0.00 51 1009.4
20210303053259 16 0.0 0.0 0.00 0.00 0.00 45 1009.6
20210303051525 16 0.0 0.0 0.00 0.00 0.00 43 1009.4
20210303050049 16 0.0 0.0 0.00 0.00 0.00 42 1009.5
20210303044528 16 0.0 0.0 0.00 0.00 0.00 41 1009.6
20210303043243 17 292 1.0 5.0 0.00 0.00 0.00 41 1009.6
20210303041521 16 315 1.0 6.0 0.00 0.00 0.00 43 1009.7
20210303040032 16 0.0 0.0 0.00 0.00 0.00 46 1009.9
20210303034532 16 0.0 1.0 0.00 0.00 0.00 43 1009.9
20210303033127 16 0.0 0.0 0.00 0.00 0.00 43 1009.7
20210303031537 16 315 1.0 5.0 0.00 0.00 0.00 42 1009.5
20210303030040 16 292 3.0 6.0 0.00 0.00 0.00 42 1009.8
20210303024524 15 315 2.0 4.0 0.00 0.00 0.00 45 1009.8
20210303023319 15 315 2.0 4.0 0.00 0.00 0.00 46 1009.8
20210303021535 15 292 3.0 6.0 0.00 0.00 0.00 45 1009.5
20210303020027 16 292 4.0 7.0 0.00 0.00 0.00 46 1009.5
20210303014530 15 315 1.0 5.0 0.00 0.00 0.00 46 1009.7
20210303013328 15 0.0 2.0 0.00 0.00 0.00 47 1009.5
20210303011533 15 0.0 0.0 0.00 0.00 0.00 49 1009.4
20210303010036 16 0.0 3.0 0.00 0.00 0.00 47 1009.3
20210303004532 16 0.0 1.0 0.00 0.00 0.00 45 1009.7
20210303003456 16 0.0 4.0 0.00 0.00 0.00 44 1009.4
20210303001526 16 292 3.0 7.0 0.00 0.00 0.00 43 1009.3
20210303000039 16 292 4.0 9.0 0.00 0.00 0.00 44 1009.0
20210302234535 16 315 4.0 9.0 0.00 0.00 0.00 44 1008.9
20210302233225 16 315 3.0 8.0 0.00 0.00 0.00 44 1008.7
20210302231527 17 292 4.0 11.0 0.00 0.00 0.00 44 1008.6
20210302230057 17 292 5.0 11.0 0.00 0.00 0.00 42 1008.0
20210302224536 17 292 6.0 11.0 0.00 0.00 0.00 42 1007.8
20210302223054 17 292 6.0 13.0 0.00 0.00 0.00 44 1007.6
20210302221555 18 292 6.0 15.0 0.00 0.00 0.00 43 1007.5
20210302220031 18 292 6.0 13.0 0.00 0.00 0.00 42 1007.2
20210302214537 19 292 8.0 18.0 0.00 0.00 0.00 41 1007.0
20210302213101 20 292 7.0 22.0 0.00 0.00 0.00 42 1006.6
20210302211533 20 315 8.0 16.0 0.00 0.00 0.00 39 1006.3
20210302210050 20 315 8.0 18.0 0.00 0.00 0.00 38 1006.4
20210302204524 21 315 9.0 18.0 0.00 0.00 0.00 38 1006.1
20210302203035 21 315 9.0 19.0 0.00 0.00 0.00 37 1006.0
20210302201545 21 337 10.0 20.0 0.00 0.00 0.00 36 1006.1
20210302200043 21 315 11.0 26.0 0.00 0.00 0.00 34 1005.8
20210302194522 22 315 11.0 20.0 0.00 0.00 0.00 35 1005.8
20210302193029 22 315 10.0 19.0 0.00 0.00 0.00 32 1005.5
20210302191532 22 315 7.0 16.0 0.00 0.00 0.00 32 1005.1
20210302190111 22 315 7.0 18.0 0.00 0.00 0.00 34 1005.2
20210302184527 22 315 4.0 10.0 0.00 0.00 0.00 37 1005.3
20210302183135 20 292 2.0 14.0 0.00 0.00 0.00 37 1005.2
20210302181528 18 292 5.0 11.0 0.00 0.00 0.00 49 1005.3
20210302180051 17 292 7.0 14.0 0.00 0.00 0.00 45 1005.5
20210302174531 17 292 9.0 14.0 0.00 0.00 0.00 43 1005.4
20210302173326 16 292 9.0 15.0 0.00 0.00 0.00 45 1005.2
20210302171543 15 292 9.0 16.0 0.00 0.00 0.00 44 1005.3
20210302170101 15 292 7.0 18.0 0.00 0.00 0.00 43 1005.4
20210302164641 15 315 5.0 13.0 0.00 0.01 0.00 43 1005.7
20210302163449 14 315 6.0 15.0 0.00 0.02 0.00 45 1005.3
20210302161553 13 315 6.0 15.0 0.00 0.03 0.00 49 1005.8
20210302160028 13 292 6.0 16.0 0.00 0.03 0.00 48 1005.9
20210302154527 12 292 4.0 11.0 0.00 0.04 0.00 49 1005.9
20210302153331 11 315 7.0 15.0 0.00 0.04 0.00 49 1005.7
20210302151522 10 315 6.0 15.0 0.00 0.05 0.00 47 1005.6
20210302150158 10 315 6.0 15.0 0.00 0.05 0.00 49 1005.8
20210302144525 9 292 8.0 15.0 0.00 0.05 0.00 48 1005.5
20210302143117 8 292 7.0 14.0 0.00 0.05 0.00 51 1005.5
20210302141528 7 292 8.0 14.0 0.00 0.05 0.00 51 1005.5
20210302140033 7 292 7.0 14.0 0.00 0.06 0.00 51 1005.8
20210302134526 6 292 7.0 14.0 0.00 0.06 0.00 52 1005.8
20210302133153 5 292 9.0 15.0 0.00 0.07 0.00 52 1005.5
20210302131537 5 292 7.0 16.0 0.00 0.07 0.00 53 1005.6
20210302130049 4 292 8.0 16.0 0.00 0.08 0.00 52 1005.8
20210302124543 4 292 8.0 18.0 0.00 0.09 0.00 52 1005.7